Terminal Aerodrome Forecast
Issued by NWS Charleston, WV

Current Version | Previous Version | Text Only | Print | Product List | Glossary Off
Versions: 1 2 3 4 5 6 7 8 9 10 11 12 13 14 15 16 17 18 19 20 21 22 23 24 25 26

000
FTUS41 KRLX 201700
TAFPKB
TAF
KPKB 201738Z 2018/2118 00000KT P6SM SCT050
     FM210100 00000KT P6SM BKN080
     FM210200 00000KT 6SM BR BKN080
     FM210400 00000KT 3SM BR BKN030
     FM210600 00000KT 1/4SM FG VV001
     FM211300 19003KT 2SM BR BKN170
      AMD NOT SKED=

USA.gov is the U.S. government's official web portal to all federal, state and local government web resources and services.